Location: Newark
(35.0033°N, 81.0878°W)
Time: 13:28:10
(UTC+00:00)

Envisat - Visible Passes

Search period start: 22 October 2020 00:00
Search period end: 01 November 2020 00:00
Orbit: 764 x 766 km, 98.1° (Epoch: 21 October)

Date Brightness Start Highest point End Pass type
(mag) Time Alt. Az. Time Alt. Az. Time Alt. Az.
22 Oct 6.2 10:12:38 10° NE 10:15:40 16° E 10:18:42 10° SE visible
22 Oct 4.0 23:01:04 10° S 23:06:00 53° W 23:10:58 10° NNW visible
24 Oct 6.5 00:06:53 10° WSW 00:08:37 12° W 00:10:21 10° WNW visible
24 Oct 5.2 10:36:54 10° NE 10:41:17 29° E 10:45:39 10° SSE visible
24 Oct 5.3 23:27:11 10° SSW 23:31:31 28° W 23:35:53 10° NW visible
25 Oct 6.5 10:02:20 10° ENE 10:04:11 12° E 10:06:03 10° ESE visible
26 Oct 4.0 11:01:50 10° NNE 11:06:48 54° E 11:11:45 10° S visible
26 Oct 6.2 23:54:10 10° SW 23:57:08 16° W 00:00:06 10° WNW visible
27 Oct 5.7 10:25:53 10° NE 10:29:51 23° E 10:33:46 10° SE visible
27 Oct 4.8 23:15:26 10° SSW 23:20:06 37° W 23:24:47 10° NNW visible
29 Oct 4.5 10:50:37 10° NNE 10:55:25 41° E 11:00:10 10° SSE visible
29 Oct 5.9 23:41:59 10° SW 23:45:40 20° W 23:49:23 10° NW visible
30 Oct 6.0 10:15:04 10° NE 10:18:23 17° E 10:21:42 10° SE visible
30 Oct 4.2 23:03:49 10° S 23:08:41 48° W 23:13:36 10° NNW visible
31 Oct 3.3 11:15:47 10° NNE 11:20:52 77° ESE 11:25:57 10° S visible
